BEIDOU-3 G3 1 45807U 20040A 21056.89445281 -.00000358 00000-0 00000+0 0 9991 2 45807 2.5411 298.3762 0009129 16.8056 273.2334 1.00275224 2653 CZ-3B R/B 1 45808U 20040B 21053.72834273 .00002395 00000-0 91842-3 0 9994 2 45808 28.0850 194.7270 7123278 341.7410 2.0154 2.47245283 6016